Location: Dunstelkingen
(48.7187°N, 10.4129°E)
Time: 20:41:30
(UTC+00:00)

Daily predictions for brighter satellites

Satellite Brightness Start Highest point End
(mag) Time Altitude Azimuth Time Altitude Azimuth Time Altitude Azimuth
USA 245 4.0 19:58:25 10° SSE 20:02:34 60° ENE 20:07:46 10° N
Cosmos 2228 Rocket 3.2 20:03:10 10° S 20:07:44 83° E 20:12:20 10° N
SL-27 R/B 3.3 20:05:15 10° SW 20:07:55 42° WNW 20:10:37 10° N
BREEZE-M DEB (TANK) 3.4 20:04:23 10° WSW 20:08:00 72° SSE 20:20:41 10° ENE
Cosmos 1862 Rocket 3.7 20:04:18 10° S 20:08:39 63° E 20:13:04 10° NNE
Okean 1-7 3.8 20:07:27 10° SSE 20:11:21 34° E 20:15:15 10° NNE
SL-16 R/B 4.1 20:07:09 10° NW 20:11:44 26° WSW 20:16:19 10° SSW
GENESIS II 4.0 20:08:13 10° SSW 20:11:47 57° SE 20:15:22 10° NE
Cosmos 1315 Rocket 3.4 20:10:23 10° SSE 20:14:04 38° E 20:17:47 10° NNE
COSMOS 2455 3.8 20:10:31 10° SSE 20:15:25 27° ESE 20:20:21 10° NE
Cosmos 1346 Rocket 3.1 20:11:39 10° NNW 20:15:28 62° W 20:19:14 10° S
Cosmos 1242 Rocket 3.6 20:13:49 10° SE 20:15:41 17° E 20:17:34 10° NE
Meteor 1-21 4.3 20:11:23 10° S 20:17:11 79° E 20:23:02 10° NNE
SeaSat 1 2.8 20:13:31 10° SE 20:18:20 58° NE 20:23:10 10° NNW
Ariane Rocket 3.1 20:20:56 10° SSE 20:26:00 72° ENE 20:31:06 10° N
NOSS 5 (C) 4.3 20:23:06 10° NW 20:26:17 73° NE 20:29:17 11° SE
IRS-1C Rocket 4.5 20:21:32 10° S 20:26:45 66° WSW 20:32:00 10° NNW
Cosmos 839 Rocket 4.3 20:20:11 10° NW 20:27:00 69° WSW 20:33:04 10° SSE
Cosmos 1707 Rocket 3.9 20:23:40 10° SSW 20:28:05 70° W 20:32:30 10° N
Okean 3 3.4 20:24:20 10° S 20:28:29 82° E 20:32:42 10° N
SL-16 R/B 4.5 20:25:46 10° N 20:29:03 15° NNE 20:32:21 10° ENE
Cosmos 2333 Rocket 3.3 20:24:01 10° NW 20:29:21 40° WSW 20:34:41 10° S
SL-14 R/B 4.2 20:26:15 10° SSW 20:29:55 48° WNW 20:33:39 10° N
Cosmos 1408 4.4 20:30:35 10° ESE 20:31:25 11° E 20:32:14 10° ENE
SL-4 R/B 1.9 20:28:07 10° WNW 20:31:56 71° SSW 20:35:52 11° ESE
Cosmos 2237 Rocket 3.4 20:27:16 10° NNW 20:32:22 33° NE 20:37:26 10° ESE
CZ-4C R/B 4.3 20:30:46 10° N 20:34:48 52° WNW 20:38:45 10° SSW
Cosmos 1655 Rocket 4.5 20:28:42 10° SSW 20:35:03 68° WNW 20:41:27 10° N
BlueWalker 3 1.8 20:32:44 10° WSW 20:36:29 89° NNW 20:40:15 10° ENE
Cosmos 968 Rocket 4.3 20:31:58 10° SW 20:37:02 56° WNW 20:42:12 10° NNE
Okean 2 3.4 20:34:48 10° S 20:38:45 63° E 20:42:45 10° NNE
Cosmos 2227 Rocket 4.1 20:37:43 10° ESE 20:39:28 11° E 20:41:14 10° ENE
Cosmos 1733 Rocket 4.1 20:38:08 10° NNW 20:42:20 43° W 20:46:31 10° SSW
Cosmos 2322 3.8 20:39:50 10° NNW 20:45:32 84° WSW 20:50:38 13° SSE
USA 234 3.6 20:42:42 10° ENE 20:48:54 43° SE 20:55:03 10° SSW
Cosmos 2322 Rocket 4.3 20:45:29 10° NW 20:49:35 21° W 20:53:42 10° SSW
Cosmos 2297 Rocket 3.1 20:53:48 13° SSE 20:57:57 30° ESE 21:02:50 10° NE
EXPRESS MD2 2.1 20:55:56 10° WNW 20:58:32 74° N 21:00:19 14° E
Cosmos 1908 Rocket 3.6 20:59:01 10° NNW 21:03:21 77° W 21:07:02 14° S
MOS 1 Rocket 4.1 20:58:58 10° S 21:04:12 54° W 21:09:15 10° NNW
Cosmos 2219 Rocket 3.4 21:01:15 10° NW 21:06:23 36° WSW 21:11:30 10° S
NOSS 8 (F) 4.4 21:02:36 10° SW 21:06:36 86° SE 21:09:44 10° NE
Cosmos 1782 Rocket 3.7 21:02:51 10° N 21:07:09 62° ENE 21:10:15 18° SSE
ERS-1 Rocket 4.3 21:04:35 10° SSW 21:09:10 35° W 21:13:47 10° NNW
USA 281 4.0 21:03:53 10° ESE 21:09:56 43° NE 21:16:04 10° NNW
Cosmos 371 Rocket 3.7 21:06:32 14° S 21:10:23 45° ESE 21:15:00 10° NE
Terra 3.0 21:08:09 10° SSW 21:12:28 36° W 21:16:50 10° NNW
Cosmos 1570 Rocket 4.4 21:07:24 10° NNW 21:12:40 59° WSW 21:17:02 15° S
Cosmos 773 Rocket 4.2 21:08:06 10° NNW 21:13:14 60° ENE 21:17:04 18° SE
Cosmos 1300 Rocket 3.7 21:09:57 10° N 21:14:13 61° ENE 21:17:09 20° SSE
MetOp-A 4.1 21:10:24 16° SSE 21:14:40 90° W 21:19:51 10° NNW
Cosmos 1703 4.1 21:21:01 21° SE 21:22:37 31° E 21:25:54 10° NNE
ARIANE 5 R/B 3.3 21:19:54 18° SE 21:22:43 42° ENE 21:26:52 10° N
Spot 1 4.4 21:18:19 10° NNE 21:23:03 86° WNW 21:27:59 10° SSW
GP-B 3.1 21:19:58 10° N 21:24:24 71° E 21:27:24 20° S
Cosmos 2084 Rocket 3.5 21:26:11 10° SSW 21:30:24 55° SE 21:34:28 10° NE
NOSS 0 Rocket 4.1 21:24:39 10° NNW 21:30:53 70° WSW 21:35:24 19° SSE
Cosmos 1953 3.8 21:29:29 10° NNW 21:32:48 28° W 21:36:00 10° SSW
COSMOS 2428 3.4 21:27:35 10° NW 21:33:01 46° WSW 21:37:11 17° S
Cosmos 1455 3.7 21:31:28 10° NNW 21:34:28 27° W 21:37:14 11° SSW
CZ-4C R/B 1.8 21:30:28 10° SW 21:34:58 82° SE 21:40:42 10° NE
SJ 16-02 4.0 21:32:05 10° WSW 21:35:19 20° NW 21:38:35 10° N
BREEZE-M DEB (TANK) 3.9 21:19:50 10° W 21:36:42 84° N 21:40:52 10° E
Cosmos 1745 Rocket 4.1 21:34:05 13° S 21:39:47 89° W 21:46:12 10° N
BREEZE-M DEB (TANK) 3.1 21:39:50 34° S 21:40:11 36° SSE 21:43:28 10° E
Cosmos 1777 Rocket 4.3 21:36:58 20° S 21:40:27 51° ESE 21:45:34 10° NNE
Cosmos 304 Rocket 3.7 21:38:33 16° SSW 21:42:16 73° ESE 21:47:03 10° NNE
Nadezhda 1 Rocket 4.2 21:37:29 10° NNW 21:43:42 68° W 21:48:28 17° S
Cosmos 1242 Rocket 4.4 21:45:28 10° WSW 21:47:30 19° WNW 21:49:33 10° NNW
Cosmos 1503 Rocket 4.0 21:45:02 17° S 21:49:09 71° ESE 21:54:26 10° NNE
Cosmos 1825 3.7 21:49:46 18° ESE 21:50:28 19° E 21:52:56 10° NE
Cosmos 2151 Rocket 4.4 21:48:05 10° N 21:52:14 40° ENE 21:54:29 23° SE
Cosmos 2098 Rocket 4.1 21:49:06 10° N 21:55:40 70° ENE 21:59:29 24° SSE
SeaSat 1 4.0 21:52:49 13° SSW 21:56:04 24° WSW 22:00:04 10° NW
Okean 2 Rocket 3.9 21:52:57 10° N 21:57:14 42° ENE 21:59:32 23° SE
BREEZE-M R/B 4.3 21:57:09 23° SE 21:58:12 24° SE 22:04:37 10° ENE
H-2A R/B 2.9 21:56:48 25° SE 21:59:00 53° ENE 22:03:06 10° N
MINOTAUR 4 R/B 3.8 21:57:22 10° NNE 22:00:12 50° E 22:00:41 43° SE
COSMOS 2455 3.2 21:54:55 10° SW 22:00:54 66° NW 22:06:56 10° NNE
Cosmos 1892 3.6 22:01:05 26° ESE 22:01:55 29° E 22:05:01 10° NNE
CZ-2C R/B 3.6 21:57:58 10° NNE 22:02:25 87° ESE 22:05:08 24° SSW
Cosmos 1408 3.3 22:02:06 20° SW 22:03:43 37° WNW 22:06:32 10° N
Cosmos 332 Rocket 4.0 22:03:50 26° S 22:06:21 55° ESE 22:11:08 10° NNE
Cosmos 1174 4.2 22:02:21 10° NW 22:07:03 55° WSW 22:08:42 31° S
ALOS 2 3.4 22:04:51 23° SE 22:07:12 42° ENE 22:11:21 10° N
Cosmos 405 Rocket 2.6 22:04:37 10° N 22:08:25 86° ENE 22:09:55 35° SSE
SL-4 R/B 3.6 22:07:27 10° W 22:10:15 18° SW 22:10:36 18° SW
Cosmos 2181 Rocket 4.0 22:04:25 10° N 22:10:36 70° ENE 22:14:19 25° SSE
SL-16 R/B 2.7 22:08:52 10° NNW 22:14:29 56° ENE 22:18:25 20° SE
BlueWalker 3 3.2 22:11:21 10° WNW 22:14:55 41° N 22:18:30 10° ENE
Meteor 2-5 Rocket 3.8 22:11:12 21° S 22:15:13 90° SW 22:21:03 10° NNE
CENTAUR R/B 2.6 22:11:56 22° S 22:15:35 55° ESE 22:22:22 10° NE
Cosmos 2237 Rocket 2.6 22:11:12 10° NW 22:16:40 51° WSW 22:19:45 25° S
Spot 4 3.8 22:17:54 29° SSE 22:20:24 79° ENE 22:25:15 10° NNW
Cosmos 2227 Rocket 2.2 22:18:48 23° SSW 22:22:27 71° ESE 22:28:06 10° NNE
Cosmos 2221 Rocket 3.7 22:25:50 33° SSE 22:27:40 60° E 22:32:02 10° NNE
USA 234 3.5 22:25:39 10° NE 22:32:12 75° NNW 22:38:43 10° WSW
H-2A R/B 3.6 22:29:13 10° NE 22:32:19 20° E 22:33:24 18° ESE
Sich 1 Rocket 3.5 22:28:42 10° N 22:33:07 89° WSW 22:34:57 34° S
Cosmos 1354 Rocket 4.3 22:31:07 17° SW 22:35:16 67° WNW 22:40:34 10° NNE
Okean 1 Rocket 3.1 22:34:45 10° N 22:39:08 70° E 22:40:58 34° SSE
Cosmos 2297 Rocket 3.0 22:36:16 10° SW 22:41:45 50° NW 22:47:16 10° NNE
Cosmos 1461 3.6 22:43:12 31° SE 22:43:29 32° ESE 22:46:58 10° NE
Nadezhda 3 Rocket 4.2 22:42:06 10° N 22:48:19 64° ENE 22:51:56 26° SSE
Cosmos 990 Rocket 3.9 22:45:53 30° S 22:48:29 76° ESE 22:53:37 10° NNE
USA 281 3.7 22:50:46 25° S 22:54:22 49° WSW 23:00:44 10° NW
Cosmos 2219 3.2 22:51:47 29° S 22:54:44 70° ESE 23:00:20 10° NNE
Cosmos 1680 Rocket 4.4 22:52:37 10° NNW 22:57:34 42° ENE 23:01:20 16° SE
ARIANE 5 R/B 4.3 22:57:21 17° SW 22:59:18 23° W 23:02:46 10° NW
Cosmos 1975 Rocket 4.2 22:59:41 25° SE 23:01:14 33° E 23:05:13 10° NNE
Cosmos 1025 Rocket 3.1 23:00:15 37° SSE 23:01:46 63° E 23:06:01 10° NNE
Cosmos 2184 Rocket 4.0 22:59:56 27° S 23:03:40 88° W 23:10:07 10° N
Cosmos 2263 Rocket 2.3 23:01:08 31° S 23:03:43 60° ESE 23:09:11 10° NE
Orbus 7S? 4.0 23:01:23 10° NW 23:03:57 36° NNE 23:06:49 10° E
Cosmos 1455 Rocket 3.3 23:04:58 10° N 23:09:24 62° ENE 23:11:17 32° SSE
Cosmos 372 Rocket 4.4 23:10:27 31° SSE 23:12:35 50° ESE 23:17:36 10° NNE
Cosmos 1674 Rocket 4.5 23:14:10 23° SW 23:16:21 40° WNW 23:20:27 10° N
Cosmos 292 Rocket 3.7 23:17:32 33° SSW 23:19:43 87° ESE 23:24:34 10° NNE
Cosmos 1844 Rocket 4.4 23:18:48 15° SE 23:21:03 19° E 23:24:47 10° ENE
Cosmos 2154 Rocket 4.0 23:18:32 27° SSW 23:22:08 80° W 23:28:30 10° N
NOSS 3-2 (A) 3.2 23:18:38 22° SW 23:22:11 88° NW 23:28:30 10° NE
CZ-4C R/B 4.1 23:19:42 10° W 23:24:07 29° NNW 23:29:32 10° NE
Cosmos 1825 3.4 23:23:13 23° WSW 23:24:27 29° WNW 23:27:29 10° N
PSLV R/B 3.6 23:24:57 10° N 23:29:07 69° WNW 23:30:49 34° SSW
NOSS 3-2 (C) 3.4 23:30:22 31° S 23:32:43 56° ESE 23:38:45 10° NE
Cosmos 1818 3.7 23:28:33 10° NW 23:33:57 59° WSW 23:36:27 31° S
H-2A R/B 4.4 23:32:47 15° WSW 23:34:12 18° W 23:37:05 10° NW
Cosmos 2228 4.2 23:33:05 10° N 23:37:03 34° ENE 23:39:32 19° SE
Meteor 1-21 Rocket 4.2 23:34:06 29° SSW 23:37:09 80° WNW 23:42:48 10° N
ALOS 2 4.2 23:42:15 20° WSW 23:43:42 23° W 23:47:13 10° NW
In-Cosmos 22 Rocket 4.3 23:41:13 30° S 23:44:17 82° E 23:50:09 10° NNE
Cosmos 1869 3.3 23:44:13 10° N 23:47:54 65° ENE 23:49:12 37° SSE
Aureole 1 Rocket 3.8 23:48:39 25° WSW 23:50:50 49° WNW 23:55:47 10° NNE
Cosmos 1937 Rocket 3.4 23:48:31 30° SSW 23:51:10 89° ESE 23:56:25 10° NNE
BlueWalker 3 2.7 23:49:52 10° WNW 23:53:33 51° NNE 23:57:12 10° E
